Wind_Speed
7 8 9 10 10 12 12 10 10 8 7 7 7 8 8 8 9 8 6 4 7 6 4 4 4 3 3 2 2 4 5 6 7 9 12 13 12 11 12 15 17 16 15 16 16 16 15 16 17
7 7 8 9 9 10 9 9 8 8 8 8 6 6 6 7 7 6 8 7 6 8 9 8 6 7 7 6 6 5 5 6 7 8 8 9 13 14 15 15 14 16 17 18 17 17 19 19 19
6 7 7 9 9 9 7 7 7 8 7 6 6 5 6 6 7 7 6 6 6 6 9 11 10 10 10 9 8 8 9 7 6 7 9 11 11 13 15 16 17 18 18 19 19 18 19 18 18
9 8 9 10 9 9 8 8 7 7 8 8 7 5 6 7 6 6 6 6 5 5 6 8 10 13 13 12 12 12 11 10 11 10 9 10 11 11 13 15 15 15 15 18 16 16 18 18 17
10 10 11 12 12 12 12 11 10 11 10 11 12 11 7 7 8 7 7 7 7 6 5 6 7 9 13 15 15 14 14 14 13 13 13 13 13 13 13 14 15 15 16 16 14 14 15 16 16
12 13 13 14 15 16 15 15 14 14 14 14 15 16 15 11 11 11 11 10 9 9 9 8 7 8 8 11 15 17 18 17 17 17 17 16 16 15 16 16 16 17 16 15 15 16 16 17 17
15 14 16 16 17 18 19 19 19 20 19 18 19 20 20 19 17 15 15 15 14 13 12 11 10 10 10 10 11 12 17 19 20 20 20 21 21 20 19 19 19 20 20 21 21 20 20 19 19
18 17 17 17 18 21 20 21 21 21 24 23 22 22 24 22 23 22 21 21 20 18 18 16 15 14 13 12 13 12 12 14 17 20 22 23 22 23 24 24 24 24 24 24 24 23 22 20 20
19 18 17 19 19 21 19 22 20 21 23 25 22 24 25 25 25 26 26 25 24 24 23 22 22 21 19 17 16 15 15 15 15 15 17 19 20 23 26 27 28 28 29 28 26 25 25 25 25
19 17 21 22 23 21 22 21 22 22 23 26 25 24 24 24 25 26 28 28 28 28 28 28 26 25 25 24 23 21 19 19 18 19 19 19 19 21 22 24 27 29 31 32 32 30 29 28 28
19 21 26 25 27 26 25 25 25 25 22 28 29 27 27 23 23 23 25 28 30 30 31 31 30 28 27 28 29 28 26 24 24 23 24 23 22 23 23 24 26 26 28 31 32 34 35 34 32
25 28 30 30 30 30 30 29 30 30 23 32 30 28 27 27 24 25 26 27 29 30 31 30 29 28 27 28 31 32 31 30 30 30 29 29 28 27 28 28 27 27 29 29 29 32 35 36 37
32 31 31 30 30 32 34 32 37 27 32 33 33 31 30 30 29 29 28 29 29 29 29 31 30 29 28 27 28 28 30 32 33 33 33 33 33 33 33 32 31 31 30 30 31 32 33 34 36
36 32 32 31 33 35 37 32 36 31 36 34 35 35 34 33 33 33 33 31 30 29 30 33 30 33 32 29 27 27 26 28 30 31 33 36 36 36 37 37 37 36 35 33 33 32 34 34 35
36 38 35 33 34 39 42 31 33 35 37 35 35 35 35 36 36 37 37 34 34 32 31 31 34 36 35 35 33 32 29 28 28 28 29 32 35 37 39 40 40 39 39 38 38 36 35 35 36
41 44 41 35 35 43 48 44 32 37 39 33 33 33 36 36 38 42 39 36 37 36 35 34 34 37 39 39 38 37 36 34 31 30 30 31 33 35 38 39 40 41 41 41 41 40 39 37 37
46 48 46 43 35 45 51 50 36 36 41 33 33 36 37 36 43 43 40 40 39 39 37 34 34 34 38 40 40 39 38 37 37 35 32 32 36 39 40 40 40 40 41 42 42 42 42 40 39
49 51 52 50 38 45 51 49 50 39 41 34 32 35 37 37 38 40 42 40 42 41 39 36 35 35 36 36 37 39 39 40 40 39 36 37 38 41 43 42 41 40 41 40 40 42 44 43 41
49 53 53 50 52 52 48 52 49 50 39 36 35 34 36 39 38 39 41 41 39 37 36 37 34 34 35 37 39 41 41 40 40 41 40 39 39 40 43 42 43 42 41 41 42 42 42 45 44
50 55 55 55 56 58 55 53 48 50 42 38 36 38 42 40 39 40 38 38 40 38 36 35 38 41 39 36 38 39 39 41 42 41 41 40 42 42 44 44 43 45 47 47 46 46 46 47 47
54 55 57 59 58 57 61 57 54 52 48 44 44 44 42 43 43 42 42 45 46 44 44 41 39 40 42 37 32 34 35 36 38 38 41 42 46 48 49 51 50 49 50 51 51 49 48 48 48
52 49 53 55 57 60 63 65 59 58 56 58 54 51 52 49 49 50 49 44 46 47 44 42 43 42 42 43 44 44 42 42 43 44 43 43 45 48 50 52 53 53 52 52 52 53 52 51 48
53 55 54 56 59 61 60 64 62 58 59 58 57 55 51 49 39 38 40 42 43 48 47 45 47 47 47 51 52 49 50 49 47 47 48 49 49 49 51 53 54 53 53 54 55 55 55 54 53
53 53 55 55 56 59 59 58 61 60 60 62 65 61 46 32 32 39 36 38 40 43 44 50 57 60 57 59 58 57 56 54 52 52 53 53 54 54 55 55 57 58 57 57 58 58 60 60 59
50 53 57 60 60 63 57 64 65 64 64 64 61 62 59 57 55 55 54 51 50 50 54 60 65 65 60 58 61 62 63 64 59 56 56 57 58 60 61 61 61 62 63 64 63 62 64 66 66
55 57 59 63 64 66 64 70 68 68 67 67 69 69 68 67 66 64 64 64 64 64 68 70 72 73 72 70 71 71 70 67 67 68 66 63 64 66 67 67 68 68 70 69 69 69 67 67 69
58 58 58 62 62 65 70 69 66 65 67 67 69 70 72 74 75 72 73 74 71 67 68 68 69 69 72 72 69 69 71 73 73 74 73 73 70 69 69 72 74 72 72 71 68 68 69 68 68
56 56 56 50 55 63 65 70 70 60 63 64 64 68 67 68 69 72 73 70 66 64 64 66 67 69 69 70 69 68 65 65 68 72 72 71 74 74 70 70 72 77 78 75 72 71 68 67 69
57 57 58 59 62 65 64 66 65 62 58 65 70 66 65 66 66 69 74 76 66 64 63 62 65 65 68 68 68 67 68 69 69 74 73 74 75 76 74 71 72 73 75 77 78 78 73 72 70
59 58 56 56 58 61 61 64 55 61 68 72 72 71 65 65 69 74 74 68 65 65 68 69 71 69 70 74 73 70 70 72 74 72 71 73 77 77 76 75 74 74 77 79 78 78 80 78 73
Wind_Direction
59 62 55 54 51 43 39 39 39 36 39 36 32 18 12 8 5 354 324 283 256 255 255 234 218 223 245 254 225 231 228 222 226 233 233 224 217 209 208 207 200 205 210 219 223 224 225 222 221
44 44 37 33 35 36 33 26 24 27 20 23 24 18 16 356 356 5 358 336 285 255 248 251 246 237 231 232 241 242 227 232 225 233 229 228 226 217 211 212 213 216 221 222 227 230 233 235 238
17 11 9 13 11 12 9 9 4 2 3 359 359 6 5 5 354 348 356 354 344 290 263 248 247 248 245 237 233 238 243 240 235 231 231 227 226 227 224 223 220 217 218 225 226 231 234 231 233
346 338 335 336 337 333 330 330 332 330 318 313 319 335 333 346 348 344 333 332 336 333 302 274 254 249 249 250 245 238 237 242 244 244 239 236 233 232 229 226 229 227 223 227 225 227 230 227 225
322 320 317 313 313 310 308 308 313 305 300 301 307 312 310 315 315 320 329 329 320 317 315 307 290 262 248 247 249 249 245 241 242 245 243 239 232 231 234 235 235 235 232 232 233 235 236 241 236
303 304 302 303 303 300 296 298 297 295 293 295 295 296 301 296 295 300 302 301 306 307 300 297 299 298 283 263 251 248 248 246 244 245 246 245 243 238 235 236 237 236 235 234 236 239 245 244 243
294 299 297 300 302 300 296 293 293 291 289 287 286 287 288 292 292 289 291 290 290 292 295 297 292 283 280 285 278 263 254 249 247 244 246 248 248 245 242 240 239 239 238 237 239 246 249 252 250
295 298 297 304 304 299 301 298 293 291 290 287 284 283 280 285 286 286 284 285 284 282 286 285 282 280 279 278 274 275 273 266 256 251 249 248 249 251 251 249 244 241 241 244 246 247 249 245 242
292 296 297 295 295 296 298 296 295 292 288 287 285 287 288 284 283 283 283 282 280 281 279 278 278 277 274 271 270 272 270 271 270 268 264 260 257 255 253 251 251 251 249 247 248 252 250 248 245
288 295 292 294 293 289 293 292 293 292 288 285 288 286 287 288 286 285 284 284 281 278 276 277 274 272 272 273 272 269 270 271 268 267 266 266 267 267 266 263 259 255 253 253 252 250 252 253 254
285 293 291 288 287 288 286 285 287 287 292 284 285 289 291 290 290 285 283 282 281 277 275 273 272 272 271 270 269 270 270 269 269 271 273 271 271 271 270 268 267 266 263 258 256 255 253 253 253
282 287 288 289 287 287 284 282 280 287 293 283 291 295 295 295 294 289 287 285 282 279 278 274 270 269 273 275 272 267 267 270 269 268 267 271 272 273 273 272 272 270 267 266 264 262 259 257 256
285 289 289 288 288 283 281 282 285 293 281 283 288 292 295 299 297 291 288 285 284 283 282 277 272 272 277 281 278 273 268 271 272 271 270 270 270 270 271 270 270 268 268 267 267 265 263 261 261
289 287 288 289 287 284 282 287 287 283 281 283 285 289 294 296 290 288 281 276 276 279 279 278 278 274 275 279 279 274 272 272 272 272 271 269 269 269 268 269 269 270 270 268 267 269 268 266 265
287 286 288 289 291 290 287 282 283 280 283 286 287 287 286 282 282 281 280 281 282 282 279 273 270 271 273 274 274 273 271 269 271 271 270 270 268 267 268 268 268 268 268 268 268 268 268 268 266
287 288 286 284 289 291 290 288 282 287 285 286 284 282 278 278 277 279 282 281 281 284 283 278 272 269 270 269 268 269 268 267 267 268 267 267 268 268 268 268 269 267 266 266 266 267 268 269 269
289 286 287 286 289 287 285 288 287 286 285 286 281 278 274 275 276 275 278 282 282 282 281 281 279 276 273 273 273 270 269 268 267 265 264 263 264 264 265 267 268 268 266 267 268 268 267 266 268
285 286 288 286 286 282 281 290 292 284 281 284 279 276 276 273 271 278 279 278 279 281 282 278 276 273 271 271 272 273 270 266 262 260 260 260 261 263 264 266 266 265 263 263 265 266 267 267 268
282 284 283 286 285 283 284 286 289 291 289 285 284 276 272 272 273 272 275 280 279 275 273 276 271 270 269 271 272 273 273 271 270 268 262 258 259 262 265 266 265 264 261 260 261 264 267 267 268
277 278 280 282 283 284 285 282 284 286 291 290 280 276 277 275 276 278 278 280 280 276 276 271 267 275 275 269 270 267 269 271 269 269 267 260 257 258 262 262 261 261 260 259 259 261 263 266 269
272 276 279 282 283 283 285 284 285 287 288 285 283 280 279 276 277 276 275 279 278 274 277 275 268 268 267 267 255 264 271 272 276 273 272 269 266 263 261 261 260 259 259 260 262 263 264 265 267
274 276 279 281 282 285 285 286 286 290 294 290 288 290 286 283 283 279 278 271 275 272 268 265 261 265 266 261 264 263 264 269 270 270 272 273 274 273 270 267 265 263 263 261 261 261 263 264 265
274 277 276 276 277 281 282 287 296 297 292 292 292 298 298 298 296 293 288 283 273 267 266 266 265 275 272 266 271 266 266 270 268 267 266 267 268 269 271 271 270 267 265 264 263 261 259 259 260
276 277 278 278 279 277 284 289 287 289 291 296 298 296 297 290 282 282 273 271 262 260 260 260 270 275 274 273 273 271 270 268 265 262 260 261 263 263 264 265 267 269 267 266 266 266 264 263 260
278 281 282 280 280 283 286 280 280 283 289 288 288 288 287 284 284 281 274 267 261 258 258 261 268 273 273 268 267 267 270 273 268 264 264 264 260 258 259 260 262 264 266 267 266 264 266 266 265
281 280 278 281 280 279 276 279 282 284 284 283 284 282 282 282 281 278 275 273 271 270 270 270 272 272 268 266 267 267 266 266 267 268 264 263 265 263 256 255 257 258 261 263 264 265 264 264 266
282 284 282 281 279 278 281 283 282 287 285 283 280 279 280 280 281 281 280 280 279 276 274 273 272 271 273 274 272 266 264 264 263 264 264 266 263 261 259 255 254 254 258 261 262 264 266 265 263
283 282 282 279 270 275 279 285 288 287 282 283 283 282 280 278 277 278 278 277 274 272 270 271 273 273 273 274 273 272 268 260 257 256 258 259 259 258 258 257 255 255 254 257 260 261 262 264 263
281 283 284 282 279 281 283 287 292 287 281 285 286 283 279 276 276 273 269 270 268 269 269 268 269 275 278 276 271 266 266 263 259 255 257 251 250 250 254 256 257 257 256 255 255 257 258 260 260
284 286 282 278 282 281 277 274 274 272 277 278 278 279 276 277 278 277 274 264 264 268 267 269 271 275 279 281 275 268 268 264 255 253 253 253 251 252 251 253 257 257 259 261 257 257 259 257 258
Height
5868 5868 5867 5866 5868 5864 5863 5863 5861 5860 5859 5857 5855 5855 5854 5853 5853 5853 5850 5850 5849 5848 5848 5848 5847 5847 5847 5846 5845 5845 5845 5846 5846 5846 5848 5849 5850 5850 5851 5851 5852 5854 5855 5856 5857 5858 5858 5860 5861
5869 5868 5867 5867 5867 5865 5865 5863 5862 5860 5859 5857 5856 5854 5854 5853 5852 5851 5850 5849 5848 5848 5847 5847 5847 5846 5846 5846 5846 5846 5846 5846 5846 5847 5847 5848 5848 5849 5850 5851 5852 5854 5855 5855 5857 5857 5858 5859 5860
5869 5868 5868 5867 5866 5865 5864 5863 5862 5861 5859 5857 5855 5855 5854 5853 5852 5851 5850 5849 5848 5847 5846 5846 5846 5846 5846 5845 5845 5845 5846 5846 5846 5846 5847 5847 5848 5848 5849 5850 5852 5852 5853 5855 5855 5856 5857 5858 5859
5869 5869 5869 5867 5866 5865 5863 5862 5862 5860 5858 5856 5855 5855 5854 5853 5852 5851 5850 5849 5848 5847 5846 5845 5845 5845 5845 5845 5844 5845 5844 5845 5846 5846 5847 5847 5847 5847 5848 5850 5850 5851 5852 5854 5853 5855 5856 5857 5857
5869 5868 5867 5866 5865 5863 5862 5861 5860 5859 5858 5856 5855 5854 5853 5852 5851 5850 5849 5848 5848 5847 5846 5845 5844 5844 5843 5843 5843 5844 5844 5844 5844 5845 5845 5846 5846 5847 5847 5848 5849 5850 5851 5852 5852 5854 5855 5857 5856
5868 5867 5866 5865 5864 5862 5860 5859 5858 5857 5855 5855 5854 5852 5852 5850 5849 5849 5847 5846 5846 5845 5845 5844 5844 5843 5842 5842 5842 5842 5842 5842 5843 5843 5843 5844 5844 5845 5845 5846 5847 5848 5849 5850 5851 5853 5854 5855 5855
5866 5865 5863 5862 5861 5860 5858 5857 5856 5854 5853 5852 5851 5850 5849 5848 5847 5846 5846 5845 5844 5843 5843 5842 5842 5841 5841 5841 5841 5840 5840 5840 5840 5840 5841 5842 5843 5843 5844 5844 5845 5846 5847 5848 5849 5850 5851 5851 5852
5863 5862 5861 5860 5859 5857 5855 5854 5853 5852 5849 5848 5848 5847 5844 5844 5843 5842 5842 5842 5842 5841 5841 5840 5839 5839 5839 5838 5838 5839 5839 5838 5838 5838 5839 5839 5840 5840 5841 5842 5843 5843 5844 5845 5846 5846 5847 5847 5848
5860 5859 5858 5857 5856 5854 5852 5850 5850 5849 5846 5843 5845 5843 5841 5840 5839 5838 5838 5838 5837 5837 5837 5836 5836 5835 5835 5835 5835 5835 5836 5836 5836 5836 5836 5836 5837 5837 5837 5838 5838 5839 5840 5841 5841 5842 5842 5843 5845
5855 5856 5854 5853 5852 5851 5848 5847 5845 5845 5844 5840 5839 5838 5837 5836 5835 5834 5833 5831 5831 5831 5831 5831 5831 5831 5831 5831 5831 5831 5831 5832 5833 5832 5832 5833 5833 5833 5834 5834 5834 5835 5836 5837 5837 5837 5838 5839 5840
5852 5851 5848 5848 5846 5846 5844 5842 5842 5840 5841 5835 5835 5835 5833 5832 5831 5830 5828 5826 5824 5824 5824 5824 5824 5825 5826 5826 5826 5827 5828 5828 5828 5828 5828 5828 5829 5829 5829 5829 5829 5829 5830 5831 5831 5832 5833 5834 5834
5847 5846 5843 5842 5840 5839 5838 5838 5836 5835 5837 5829 5831 5831 5830 5828 5828 5825 5823 5821 5819 5817 5817 5818 5819 5819 5820 5820 5820 5820 5821 5822 5822 5822 5823 5823 5823 5823 5823 5823 5823 5823 5824 5824 5825 5826 5826 5827 5828
5840 5841 5838 5836 5833 5831 5829 5831 5827 5834 5827 5826 5826 5825 5824 5823 5821 5819 5817 5814 5813 5813 5813 5812 5813 5815 5815 5815 5814 5814 5814 5815 5815 5816 5817 5817 5817 5817 5817 5817 5817 5817 5817 5818 5818 5819 5820 5820 5821
5833 5832 5831 5830 5826 5823 5821 5825 5820 5824 5820 5822 5819 5819 5818 5816 5813 5810 5808 5807 5807 5808 5807 5806 5807 5807 5807 5809 5808 5807 5807 5807 5808 5809 5809 5809 5809 5810 5810 5809 5810 5811 5811 5811 5811 5812 5812 5813 5814
5825 5822 5824 5823 5820 5813 5810 5819 5816 5813 5811 5815 5815 5813 5811 5807 5804 5801 5800 5802 5801 5802 5802 5801 5800 5798 5798 5799 5800 5800 5800 5800 5801 5801 5801 5801 5801 5801 5801 5801 5802 5802 5803 5804 5804 5804 5805 5805 5806
5817 5813 5814 5817 5814 5806 5800 5803 5812 5806 5803 5807 5806 5806 5801 5801 5797 5792 5793 5794 5793 5793 5793 5793 5793 5791 5790 5789 5789 5790 5791 5792 5793 5793 5793 5794 5793 5792 5792 5792 5793 5794 5795 5795 5796 5796 5796 5797 5797
5807 5803 5803 5803 5808 5798 5790 5790 5804 5801 5794 5799 5798 5795 5793 5792 5787 5783 5785 5784 5784 5783 5785 5786 5786 5786 5783 5781 5781 5782 5782 5783 5782 5783 5784 5784 5783 5783 5783 5783 5783 5784 5785 5786 5788 5788 5788 5788 5789
5796 5793 5791 5790 5799 5791 5782 5782 5780 5793 5789 5789 5787 5784 5784 5783 5779 5779 5777 5777 5776 5775 5776 5777 5777 5776 5775 5774 5772 5771 5772 5772 5771 5771 5773 5773 5773 5772 5773 5773 5773 5774 5774 5776 5776 5776 5777 5779 5781
5786 5781 5781 5784 5781 5778 5780 5773 5774 5770 5781 5780 5779 5776 5773 5771 5771 5770 5768 5766 5765 5765 5766 5766 5766 5768 5767 5766 5766 5764 5763 5763 5764 5763 5763 5762 5763 5763 5762 5763 5764 5765 5765 5764 5764 5765 5767 5768 5770
5775 5770 5770 5770 5769 5767 5766 5764 5766 5762 5767 5769 5769 5766 5765 5764 5766 5764 5763 5760 5758 5758 5758 5756 5755 5756 5757 5757 5757 5756 5755 5755 5753 5752 5753 5754 5752 5753 5752 5752 5752 5754 5754 5754 5753 5754 5755 5756 5759
5764 5762 5761 5758 5758 5758 5751 5752 5752 5754 5757 5756 5755 5755 5757 5756 5755 5754 5754 5753 5750 5749 5749 5749 5748 5747 5745 5744 5745 5747 5747 5746 5746 5744 5742 5743 5742 5742 5741 5741 5741 5742 5742 5744 5744 5744 5745 5744 5745
5756 5756 5753 5751 5748 5744 5740 5737 5742 5743 5742 5736 5737 5742 5740 5741 5742 5744 5744 5741 5740 5739 5737 5735 5735 5735 5736 5736 5735 5733 5734 5736 5737 5735 5733 5733 5732 5731 5731 5730 5730 5731 5731 5731 5732 5732 5733 5732 5734
5744 5742 5744 5742 5738 5735 5733 5729 5730 5729 5728 5726 5726 5723 5724 5724 5725 5727 5728 5727 5728 5727 5725 5725 5724 5724 5723 5721 5723 5722 5721 5721 5720 5722 5721 5721 5720 5718 5718 5718 5717 5719 5719 5718 5720 5720 5719 5718 5719
5734 5732 5729 5727 5727 5726 5726 5725 5726 5719 5715 5716 5716 5714 5715 5715 5716 5717 5717 5717 5716 5714 5713 5713 5712 5710 5711 5710 5707 5708 5707 5705 5705 5706 5705 5704 5705 5705 5703 5704 5704 5704 5705 5705 5705 5708 5708 5707 5706
5722 5720 5716 5714 5714 5714 5718 5712 5714 5712 5711 5709 5706 5704 5703 5703 5702 5701 5702 5702 5702 5701 5701 5699 5697 5694 5694 5694 5693 5692 5690 5689 5688 5686 5686 5688 5687 5688 5687 5687 5688 5689 5689 5689 5690 5690 5693 5694 5695
5712 5709 5705 5697 5700 5698 5704 5696 5705 5697 5699 5695 5690 5691 5688 5684 5684 5683 5682 5681 5682 5682 5681 5679 5678 5677 5676 5676 5675 5674 5673 5671 5670 5669 5668 5668 5670 5669 5668 5669 5668 5670 5671 5672 5672 5674 5675 5677 5680
5697 5698 5692 5682 5685 5676 5686 5684 5690 5687 5678 5678 5675 5673 5673 5669 5663 5662 5662 5661 5659 5658 5658 5657 5656 5655 5655 5653 5652 5652 5652 5652 5651 5649 5649 5648 5647 5648 5650 5649 5649 5648 5651 5652 5653 5655 5657 5658 5661
5682 5682 5678 5676 5665 5661 5667 5669 5671 5674 5661 5659 5658 5656 5655 5651 5649 5644 5642 5640 5637 5636 5635 5634 5635 5635 5634 5632 5631 5629 5628 5628 5628 5628 5628 5628 5628 5626 5626 5628 5630 5630 5630 5632 5633 5636 5638 5639 5642
5667 5665 5663 5658 5655 5644 5642 5646 5658 5650 5648 5644 5639 5636 5633 5630 5628 5625 5621 5619 5618 5617 5614 5612 5610 5610 5612 5611 5611 5609 5609 5608 5607 5607 5607 5608 5607 5606 5606 5606 5608 5610 5611 5611 5612 5614 5615 5620 5622
5651 5651 5648 5641 5639 5633 5627 5626 5641 5635 5632 5627 5624 5618 5612 5609 5607 5604 5602 5599 5598 5596 5595 5593 5592 5590 5590 5592 5591 5588 5588 5588 5587 5586 5587 5587 5587 5586 5585 5586 5588 5589 5591 5590 5591 5593 5594 5597 5601